Location: Newark
(49.8348°N, 24.0280°E)
Time: 07:25:14
(UTC+00:00)

S-56A Canister/Altair - Pass Details

Date: 04 February 2020
Orbit: 633 x 2499 km, 38.9° (Epoch: 20 February)

Event Time Altitude Azimuth Distance (km) Brightness Sun altitude
Rises 13:09:34 0° 196° (SSW) 5,848 13.4 15.9°
Reaches altitude 10° 13:15:40 10° 179° (S) 4,531 12.4 15.3°
Maximum altitude 13:22:00 16° 147° (SSE) 3,632 11.3 14.6°
Drops below altitude 10° 13:27:20 10° 114° (ESE) 3,698 10.9 14.1°
Sets 13:31:27 0° 94° (E) 4,326 11.0 13.6°
